Wind_Speed
3 5 6 8 10 11 11 10 8 8 7 6 5 6 7 8 10 13 17 19 18 14 10 8 11 14 10 7 6 4 6 8 10 8 8 7 7 5 5 10 14 13 10 9 5 5 3
2 3 6 8 10 9 7 6 5 4 4 4 5 6 8 10 14 19 21 21 17 12 9 9 11 12 7 8 6 5 1 4 5 6 6 4 4 8 7 6 1 6 8 7 4 5 3
1 3 6 8 9 6 4 2 1 1 3 5 7 9 12 17 20 21 22 20 15 12 10 10 11 12 7 5 4 3 0 1 1 4 6 8 9 3 7 9 5 8 10 6 6 4 2
1 3 6 7 8 4 3 5 6 8 10 12 13 16 18 20 22 23 23 18 15 11 10 11 15 12 5 6 3 1 3 5 4 5 8 9 12 9 4 7 4 5 4 6 7 1 2
0 2 5 8 6 4 5 7 10 11 12 14 15 16 17 19 22 23 20 17 13 10 8 11 9 6 6 3 2 1 9 7 6 9 10 8 8 6 4 6 6 2 2 1 6 4 4
1 2 4 7 6 4 6 9 11 12 13 15 16 17 18 18 20 19 17 15 10 7 8 9 7 8 3 4 1 4 8 9 6 8 5 3 4 4 4 3 1 2 3 3 1 6 6
3 1 4 6 6 4 6 9 11 13 15 16 16 17 16 17 17 18 17 13 8 8 10 6 7 9 6 4 11 5 8 7 5 5 3 6 4 6 7 6 3 1 1 2 3 4 7
4 2 3 5 6 4 7 9 11 13 16 16 15 15 15 16 16 16 13 4 7 13 13 12 14 13 12 7 8 11 5 2 2 5 3 4 8 4 4 3 1 1 2 2 2 1 5
5 4 3 5 6 4 7 9 11 13 15 15 15 15 13 13 13 12 10 9 15 8 8 8 9 5 3 12 9 12 8 6 8 8 4 5 6 2 1 6 4 2 2 4 4 4 3
6 5 4 4 6 5 6 10 12 13 15 15 14 12 11 12 10 12 10 9 9 4 3 3 2 5 3 2 6 11 6 2 3 8 7 8 3 2 2 5 7 1 2 8 7 6 4
7 5 4 5 6 6 4 9 11 13 15 15 14 12 10 8 11 8 10 7 6 1 2 1 5 5 8 5 0 13 9 9 6 4 4 4 5 5 5 4 6 5 8 5 4 6 4
7 5 4 4 6 6 4 8 10 13 15 16 14 12 9 7 9 10 7 4 2 3 3 4 2 4 8 13 7 5 7 10 3 7 10 6 3 4 5 3 2 6 3 1 1 2 4
8 5 4 4 5 7 5 6 9 11 16 16 15 13 10 8 7 9 7 2 3 3 1 6 5 4 8 6 7 11 14 12 5 2 3 3 5 2 7 3 4 8 2 2 2 4 1
9 6 3 4 5 6 7 7 8 10 14 17 16 13 10 8 9 8 6 3 4 2 1 3 5 7 4 3 6 6 4 10 13 6 3 3 4 8 9 5 5 6 6 3 2 2 4
10 7 4 3 5 6 8 8 10 11 12 17 17 14 11 10 7 7 4 2 3 4 5 7 8 4 4 4 2 3 9 6 9 10 4 2 3 3 6 6 4 3 4 1 3 1 3
12 8 5 4 4 6 7 8 11 11 13 16 16 14 11 9 8 7 1 2 2 1 2 4 4 1 4 4 2 2 3 4 2 8 4 2 2 1 1 3 8 4 3 1 2 3 4
13 9 7 4 4 6 7 8 11 12 14 15 15 7 9 10 9 3 2 3 3 2 1 2 4 4 5 4 4 3 3 3 3 3 5 4 3 2 3 2 2 3 2 2 1 2 3
14 10 7 5 4 6 6 8 10 13 12 12 6 4 10 13 4 2 4 4 3 4 3 4 5 5 4 3 4 3 3 2 2 3 2 4 1 2 1 2 3 2 1 1 2 2 2
15 11 9 6 5 5 6 7 9 13 12 9 5 5 7 12 3 3 4 4 4 3 3 3 3 2 3 4 4 4 3 3 3 1 2 1 0 2 3 4 3 5 3 2 1 1 8
15 12 10 7 5 5 5 6 8 11 11 9 5 3 3 2 3 9 10 5 5 5 5 7 5 7 7 5 4 6 5 3 1 1 1 1 2 4 5 6 4 6 7 7 8 5 8
18 14 11 8 6 5 6 5 5 8 9 8 3 2 3 4 4 10 6 6 11 5 3 3 4 3 5 4 4 4 3 4 2 2 1 2 3 4 8 11 13 12 14 12 15 15 11
18 14 12 10 7 5 5 5 5 5 6 4 4 4 4 4 7 11 1 7 9 5 2 4 7 7 5 5 2 5 3 3 1 3 1 2 1 4 4 8 10 12 15 15 13 13 13
19 16 13 11 9 6 5 5 5 5 5 3 5 8 5 1 3 3 3 7 9 9 5 5 15 10 8 8 5 6 5 5 3 1 2 1 1 1 4 9 13 6 4 4 3 4 8
19 17 15 12 10 8 5 5 5 5 5 5 6 7 3 3 2 3 8 6 12 3 8 9 6 6 4 8 8 7 9 7 4 4 1 3 2 1 3 5 3 3 5 9 13 13 8
19 17 15 13 12 10 8 6 5 5 6 5 8 4 3 3 4 5 10 11 11 9 10 9 4 7 10 4 2 3 1 2 4 6 3 2 3 2 2 4 15 12 3 2 2 11 4
17 17 15 14 12 11 9 8 6 6 6 7 7 6 4 12 5 7 8 12 6 5 5 4 7 12 5 3 2 2 1 1 3 4 4 5 4 2 2 4 4 3 4 5 4 8 4
17 17 16 14 13 12 10 9 7 7 7 8 8 7 5 6 8 11 5 8 7 6 5 5 6 3 3 2 2 2 2 1 2 2 4 2 2 4 6 6 8 6 5 1 3 3 14
17 17 16 15 14 14 12 10 9 8 8 9 8 8 6 4 12 9 9 11 8 8 5 9 6 2 3 3 3 3 2 3 3 2 3 3 2 4 3 4 6 2 2 2 5 12 7
16 17 16 16 14 14 13 11 10 9 8 8 8 7 8 5 8 11 9 10 10 10 11 13 1 6 7 4 3 3 3 1 1 3 4 4 5 4 7 6 7 13 11 7 7 7 7
Wind_Direction
304 319 316 317 322 319 312 303 294 285 276 263 243 217 202 192 178 167 154 148 147 142 127 133 132 134 128 119 81 85 57 44 58 107 113 120 138 119 96 108 106 114 123 106 119 147 107
303 325 326 331 331 328 320 308 299 283 260 230 205 182 170 164 157 149 145 144 139 129 130 121 135 145 148 110 86 78 73 43 50 71 96 102 134 124 108 104 76 116 121 111 132 152 103
311 336 341 345 346 342 338 345 48 109 135 140 143 146 147 144 143 142 140 137 134 133 115 117 138 147 128 105 100 41 320 12 16 93 98 124 156 184 136 118 110 144 139 128 77 151 98
286 359 355 360 1 8 44 69 91 103 115 119 127 131 133 138 140 139 139 138 136 123 109 121 132 142 112 131 106 321 203 189 179 145 126 123 108 104 88 125 143 168 188 208 67 98 34
211 28 4 13 18 50 80 98 106 108 113 118 123 127 135 142 142 143 144 145 134 112 111 125 141 131 118 57 334 239 172 170 164 149 132 124 86 93 137 189 168 160 128 115 152 56 317
163 50 24 23 31 76 105 115 112 114 116 120 123 126 131 136 142 144 144 139 127 112 113 116 133 134 98 40 47 140 138 163 153 130 110 73 75 111 62 263 177 136 192 186 321 38 334
157 107 42 36 42 97 119 123 119 121 123 125 123 122 127 136 144 147 147 134 129 99 84 71 92 86 111 69 58 89 129 110 134 99 112 41 82 60 47 35 40 68 259 306 52 75 318
159 132 61 44 45 97 136 136 130 129 132 133 129 127 131 140 145 150 153 160 117 125 88 81 85 75 74 87 78 41 88 81 76 105 120 140 78 76 63 56 8 292 288 73 110 35 295
163 136 88 62 51 86 152 151 144 140 141 140 134 122 125 137 146 155 164 149 142 116 101 65 64 48 30 56 48 12 42 81 85 101 109 86 76 110 326 41 351 61 360 16 314 304 213
169 137 113 83 60 70 156 162 160 155 151 149 145 140 132 140 149 157 151 159 171 152 118 53 41 23 335 124 61 22 37 63 88 107 88 77 73 64 78 62 346 235 13 306 274 250 213
170 140 124 105 77 69 137 167 170 169 163 161 159 154 150 136 154 144 152 146 164 193 157 140 69 51 52 82 64 22 34 70 79 92 243 89 75 45 48 25 352 27 318 307 269 233 238
172 146 130 108 84 70 106 165 170 174 172 169 169 166 156 142 165 165 150 139 135 251 135 143 138 118 91 56 50 41 55 66 87 74 75 94 81 32 12 318 310 324 259 181 163 194 226
176 156 146 116 91 71 82 154 160 168 175 176 174 171 166 169 162 169 173 142 209 260 172 135 120 108 88 53 63 59 64 55 42 164 61 129 65 70 6 305 182 349 252 221 210 205 27
175 166 164 121 96 70 74 134 147 151 166 173 174 173 163 171 172 174 164 197 221 103 124 103 122 97 82 25 57 54 74 60 41 17 96 16 141 14 358 14 343 19 3 29 318 321 315
174 173 174 140 106 74 76 121 140 137 152 163 167 168 173 173 171 172 180 200 147 165 129 143 139 132 103 85 80 90 57 49 29 11 37 357 96 96 57 29 312 39 57 26 122 162 255
174 176 172 160 119 86 78 113 144 136 139 149 156 164 177 182 179 161 123 95 108 107 125 179 134 310 132 107 124 100 67 27 68 27 341 55 190 55 122 250 62 33 120 226 32 340 303
180 179 172 170 136 101 79 101 151 140 138 140 145 145 174 172 160 153 152 109 123 82 63 17 117 115 98 115 90 94 89 97 26 55 39 9 299 117 236 343 333 172 157 72 75 296 279
186 183 181 173 155 115 92 87 150 153 149 153 165 145 168 161 142 77 128 114 115 116 85 93 88 90 106 93 88 103 129 61 9 337 22 31 10 261 11 67 326 314 142 107 294 199 222
193 188 188 182 166 129 108 87 125 161 163 158 127 108 155 170 149 119 127 102 76 129 53 104 103 73 116 116 118 120 124 129 28 20 21 58 273 266 186 175 201 248 198 129 86 229 245
196 193 194 187 176 149 127 104 100 149 168 161 138 126 104 173 129 148 144 133 118 68 80 82 106 120 123 101 71 140 142 142 35 75 76 237 239 266 303 330 323 260 266 255 246 247 265
199 196 198 195 185 170 148 135 111 125 148 158 113 101 142 152 149 141 129 147 140 135 93 99 107 161 138 120 109 131 147 162 132 135 85 325 283 291 289 292 290 285 275 266 249 249 264
205 202 200 199 193 194 163 156 152 136 131 128 131 146 92 90 129 134 104 152 153 126 151 126 143 122 124 128 137 171 178 218 202 145 103 20 298 347 290 299 294 293 271 263 258 255 260
203 207 204 205 198 202 184 173 169 162 156 117 111 135 133 28 128 165 143 148 152 134 56 104 134 119 100 107 90 70 83 75 84 184 172 284 185 359 281 316 315 277 255 168 251 205 279
202 205 207 207 205 202 203 187 176 164 157 134 145 139 110 129 191 125 150 136 144 105 130 130 125 112 121 137 108 88 70 73 109 57 327 136 138 77 288 303 274 46 299 285 290 291 284
199 203 205 205 207 203 203 199 188 174 165 150 149 135 127 107 128 121 140 127 113 101 106 128 65 122 138 127 96 28 118 68 78 53 67 235 140 148 261 265 295 293 79 71 271 293 358
193 199 204 205 204 207 202 200 192 177 165 162 158 133 113 123 218 145 133 159 138 125 117 87 113 141 132 83 76 113 224 309 172 149 69 79 99 254 190 257 266 6 44 325 294 264 49
191 194 199 204 203 205 203 200 196 180 170 163 159 146 125 106 160 153 152 164 140 133 119 137 153 141 131 91 103 179 211 327 233 206 197 144 160 231 242 250 272 326 50 3 283 5 333
191 193 196 201 205 207 203 199 197 192 183 174 164 165 153 121 163 174 155 157 152 162 150 152 141 156 91 95 159 193 204 195 211 262 214 247 226 211 203 257 266 90 311 271 313 311 294
204 197 198 201 204 210 209 202 200 196 193 186 181 174 164 146 171 174 174 174 179 189 164 167 173 148 162 112 176 140 187 160 233 249 188 257 207 274 195 242 282 299 296 275 292 275 289
Height
1520 1518 1517 1514 1510 1508 1505 1503 1502 1500 1499 1498 1499 1499 1500 1502 1505 1508 1510 1513 1516 1519 1519 1522 1523 1524 1526 1526 1527 1526 1525 1523 1522 1522 1521 1522 1523 1524 1521 1524 1526 1528 1532 1531 1538 1538 1539
1519 1517 1516 1512 1509 1506 1504 1502 1500 1499 1498 1497 1498 1499 1501 1503 1506 1509 1512 1515 1517 1519 1521 1522 1523 1524 1526 1527 1528 1527 1526 1526 1525 1525 1523 1524 1525 1525 1526 1527 1526 1533 1533 1534 1536 1538 1539
1518 1517 1514 1511 1508 1506 1504 1502 1500 1499 1498 1498 1498 1500 1502 1504 1507 1511 1514 1516 1518 1521 1522 1522 1523 1526 1527 1529 1528 1527 1527 1527 1526 1525 1525 1525 1525 1526 1527 1528 1533 1534 1532 1531 1535 1537 1537
1517 1516 1514 1511 1508 1506 1504 1502 1500 1500 1500 1500 1500 1502 1504 1507 1510 1513 1515 1518 1520 1522 1522 1523 1525 1527 1528 1528 1527 1527 1526 1526 1526 1526 1526 1526 1526 1526 1528 1531 1532 1527 1527 1528 1535 1535 1536
1516 1515 1513 1510 1508 1506 1504 1503 1502 1502 1502 1503 1504 1505 1507 1510 1512 1514 1517 1519 1521 1522 1524 1525 1527 1526 1527 1528 1528 1526 1525 1527 1526 1527 1527 1526 1526 1528 1529 1524 1524 1525 1525 1531 1534 1537 1535
1515 1514 1513 1511 1508 1506 1505 1505 1504 1504 1504 1505 1507 1508 1510 1512 1514 1517 1519 1521 1523 1524 1525 1526 1527 1528 1529 1529 1526 1525 1525 1526 1526 1526 1527 1527 1526 1523 1523 1520 1527 1530 1531 1530 1533 1534 1532
1514 1514 1512 1511 1509 1507 1506 1506 1506 1506 1506 1508 1509 1510 1512 1515 1517 1519 1520 1522 1527 1528 1526 1527 1528 1527 1528 1529 1527 1526 1525 1526 1526 1527 1524 1528 1525 1532 1535 1534 1534 1534 1534 1534 1532 1538 1538
1514 1513 1512 1511 1509 1507 1507 1507 1507 1507 1508 1510 1511 1513 1514 1516 1518 1520 1522 1523 1522 1526 1529 1529 1528 1529 1528 1527 1528 1527 1526 1527 1526 1525 1528 1528 1538 1540 1541 1538 1536 1535 1534 1535 1537 1540 1538
1513 1512 1512 1510 1509 1507 1507 1507 1508 1508 1510 1512 1513 1514 1516 1518 1520 1522 1522 1523 1524 1524 1526 1532 1531 1531 1531 1532 1531 1531 1530 1531 1529 1530 1530 1531 1542 1542 1539 1536 1535 1537 1536 1540 1541 1537 1536
1512 1512 1512 1510 1509 1508 1507 1507 1508 1509 1511 1513 1514 1516 1518 1519 1524 1522 1524 1524 1525 1526 1526 1535 1533 1533 1533 1532 1534 1534 1531 1534 1534 1536 1535 1539 1544 1541 1538 1541 1540 1538 1542 1543 1541 1538 1528
1511 1511 1512 1511 1510 1508 1507 1507 1508 1509 1511 1513 1515 1517 1519 1521 1522 1524 1526 1526 1527 1528 1538 1537 1534 1535 1534 1534 1537 1537 1534 1535 1535 1537 1537 1545 1542 1540 1540 1544 1543 1542 1544 1541 1539 1534 1533
1510 1510 1511 1510 1509 1508 1507 1507 1508 1509 1511 1513 1515 1517 1519 1521 1523 1524 1526 1527 1529 1533 1545 1535 1535 1536 1534 1537 1538 1539 1537 1537 1539 1537 1537 1542 1545 1544 1545 1544 1545 1544 1542 1540 1538 1534 1540
1509 1510 1511 1510 1509 1508 1506 1506 1507 1508 1510 1512 1515 1517 1520 1521 1523 1524 1526 1528 1530 1534 1536 1536 1535 1535 1536 1540 1541 1543 1542 1543 1541 1542 1544 1542 1545 1546 1548 1541 1542 1538 1536 1538 1546 1543 1541
1507 1509 1510 1509 1509 1508 1506 1506 1507 1507 1509 1511 1515 1518 1520 1521 1523 1525 1527 1529 1536 1535 1532 1534 1535 1536 1538 1542 1545 1544 1543 1543 1547 1544 1543 1545 1549 1549 1551 1549 1548 1545 1543 1550 1558 1552 1545
1505 1508 1509 1509 1509 1508 1506 1506 1507 1507 1509 1511 1515 1518 1520 1522 1524 1526 1529 1531 1531 1528 1530 1532 1535 1536 1541 1543 1543 1546 1550 1551 1555 1552 1549 1550 1551 1552 1554 1552 1551 1547 1551 1555 1561 1579 1560
1504 1506 1508 1509 1509 1508 1507 1506 1507 1508 1509 1512 1514 1518 1520 1522 1524 1526 1528 1533 1531 1533 1533 1532 1534 1538 1540 1543 1545 1546 1551 1558 1557 1558 1556 1557 1554 1554 1553 1553 1552 1547 1554 1552 1552 1567 1563
1502 1505 1507 1508 1508 1508 1508 1507 1507 1509 1510 1513 1516 1519 1520 1522 1524 1526 1527 1531 1533 1535 1535 1534 1536 1540 1542 1545 1545 1550 1556 1560 1559 1558 1558 1557 1556 1555 1554 1551 1550 1551 1551 1555 1554 1559 1562
1501 1504 1506 1507 1508 1508 1508 1508 1507 1509 1511 1514 1515 1517 1520 1522 1526 1528 1526 1529 1534 1535 1536 1537 1539 1540 1542 1547 1550 1552 1555 1557 1561 1560 1558 1561 1558 1556 1554 1556 1556 1553 1553 1553 1561 1564 1563
1500 1502 1505 1507 1507 1507 1508 1508 1508 1509 1511 1513 1515 1518 1520 1522 1525 1531 1532 1533 1535 1535 1537 1537 1540 1542 1545 1549 1554 1554 1557 1562 1561 1560 1559 1560 1559 1557 1554 1557 1556 1553 1555 1558 1562 1566 1565
1500 1502 1504 1506 1507 1507 1508 1508 1508 1509 1511 1513 1515 1519 1522 1522 1522 1523 1528 1532 1535 1538 1539 1540 1543 1544 1545 1549 1551 1555 1557 1561 1562 1561 1562 1562 1559 1559 1555 1553 1555 1557 1556 1557 1558 1564 1555
1497 1500 1503 1505 1506 1506 1507 1508 1509 1509 1510 1513 1513 1518 1518 1522 1524 1524 1527 1531 1533 1536 1539 1540 1543 1542 1544 1552 1553 1555 1556 1559 1561 1562 1562 1561 1561 1560 1558 1555 1553 1556 1555 1553 1552 1552 1557
1495 1498 1501 1503 1504 1506 1506 1508 1509 1510 1510 1512 1513 1517 1519 1523 1525 1525 1529 1530 1532 1537 1536 1539 1540 1544 1544 1548 1550 1554 1554 1557 1557 1563 1562 1565 1563 1568 1564 1558 1553 1554 1548 1546 1547 1545 1546
1493 1497 1500 1502 1504 1506 1506 1507 1508 1509 1511 1511 1512 1514 1517 1526 1526 1525 1527 1529 1532 1534 1541 1540 1542 1545 1550 1551 1553 1555 1557 1559 1561 1561 1564 1565 1567 1570 1566 1564 1559 1556 1544 1541 1542 1544 1544
1491 1495 1498 1500 1502 1504 1506 1506 1508 1509 1510 1511 1512 1514 1516 1525 1526 1525 1528 1529 1532 1535 1537 1544 1545 1547 1553 1553 1555 1557 1559 1561 1562 1565 1566 1573 1571 1576 1572 1569 1559 1542 1540 1540 1541 1539 1538
1488 1493 1496 1499 1501 1503 1505 1506 1507 1509 1510 1511 1512 1515 1516 1527 1526 1528 1529 1531 1535 1538 1542 1544 1548 1549 1552 1555 1556 1562 1559 1566 1567 1568 1568 1568 1571 1577 1575 1566 1548 1539 1537 1540 1541 1539 1539
1486 1491 1494 1497 1500 1502 1504 1506 1507 1509 1510 1512 1513 1515 1517 1519 1526 1525 1529 1532 1534 1538 1544 1548 1549 1550 1553 1556 1559 1565 1557 1559 1556 1562 1571 1571 1572 1570 1575 1571 1558 1536 1541 1542 1541 1537 1542
1484 1488 1492 1496 1499 1501 1503 1505 1507 1508 1511 1512 1513 1516 1517 1519 1523 1525 1527 1530 1533 1537 1540 1547 1550 1552 1553 1559 1564 1563 1557 1562 1556 1564 1565 1571 1574 1571 1568 1566 1550 1540 1543 1543 1546 1544 1544
1483 1486 1490 1494 1497 1500 1502 1504 1506 1508 1510 1512 1513 1516 1518 1519 1523 1525 1526 1528 1531 1534 1537 1545 1549 1551 1555 1559 1565 1563 1565 1558 1559 1554 1556 1556 1560 1565 1568 1567 1557 1543 1543 1548 1541 1542 1542
1482 1485 1488 1491 1495 1498 1501 1502 1505 1507 1509 1511 1514 1515 1517 1519 1523 1524 1526 1528 1529 1532 1534 1539 1541 1542 1546 1552 1560 1563 1565 1568 1559 1556 1553 1552 1549 1548 1553 1540 1535 1538 1541 1540 1539 1539 1538